Regional Weather Roundup
Issued by NWS

Home | Current Version | Previous Version | Graphics & Text | Print | Product List | Glossary On
Versions: 1 2 3 4 5 6 7 8 9 10 11 12 13 14 15 16 17 18 19 20 21 22 23 24 25 26 27 28 29 30 31 32 33 34 35 36 37 38 39 40 41 42 43 44 45 46 47 48 49 50
000
ASUS43 KDTX 230410
RWRMI
MICHIGAN HOURLY REGIONAL WEATHER ROUNDUP
NATIONAL WEATHER SERVICE DETROIT/PONTIAC MI
1200 AM EDT SAT AUG 23 2014

NOTE: "FAIR" INDICATES FEW OR NO CLOUDS BELOW 12,000 FEET WITH NO
SIGNIFICANT WEATHER AND/OR OBSTRUCTION TO VISIBILITY.

MIZ047>049-052>055-059>063-066>070-074>076-081>083-230500-
SOUTHEAST LOWER MICHIGAN

CITY           SKY/WX    TMP DP  RH WIND       PRES   REMARKS
ADRIAN         MOCLDY    73  70  90 E8        30.03R
ALMA           CLEAR     63  61  93 NE3       30.05R
ANN ARBOR      CLOUDY    72  64  76 E3        30.03S
BAD AXE        FOG       62  62 100 NE3       30.06R VSB 1/2
CARO           CLEAR     64  62  93 CALM      30.05R
DETROIT CITY   CLOUDY    73  60  63 E6        30.03R
DETROIT        CLOUDY    74  61  63 E3        30.03R
FLINT          MOCLDY    70  63  78 E5        30.04S
GROSSE ILE     MOCLDY    72  64  78 E8        30.01S
HILLSDALE      PTCLDY    72  72 100 CALM      30.03S
HOWELL         CLOUDY    71  68  89 E3        30.04R

CITY           SKY/WX    TMP DP  RH WIND       PRES   REMARKS
JACKSON        MOCLDY    73  70  90 E3        30.03R
LAMBERTVILLE   CLOUDY    73  68  83 E3        30.02S
LANSING        CLOUDY    71  66  84 E6        30.04R
LAPEER         FAIR      63  61  93 CALM      30.05R
MASON          CLOUDY    71  67  87 CALM      30.04R
MONROE         CLOUDY    72  66  83 CALM      30.01S
MT. CLEMENS    CLOUDY    67  61  82 N3        30.03R
PONTIAC        CLOUDY    70  61  73 E3        30.03S
PORT HOPE        N/A     65  63  93 NE7       30.04S
PORT HURON     CLOUDY    64  64 100 N3        30.03S
TRI CITIES     PTCLDY    67  63  87 NE6       30.05R
TROY           CLOUDY    71  59  66 NE7       30.06R
SAGINAW HB     CLEAR     64  64 100 NE5       30.04R
$$
MIZ043>046-050>051-056>058-064>065-071>073-077>080-230500-
SOUTHWEST LOWER MICHIGAN

CITY           SKY/WX    TMP DP  RH WIND       PRES   REMARKS
BATTLE CREEK   CLEAR     73  70  90 CALM      30.03R
BENTON HARBOR  CLEAR     72  70  93 CALM      30.00R
BIG RAPIDS     CLEAR     67  65  94 S5        30.05R
COLDWATER      CLOUDY    74  73  94 CALM      30.01S FOG
FREMONT        FAIR      71  68  92 E3        30.03R
HOLLAND        CLEAR     75  72  90 E7        30.02R
GRAND RAPIDS   CLEAR     72  72 100 E7        30.03R
IONIA          CLOUDY    70  65  82 E6        30.03R
KALAMAZOO      CLEAR     73  70  90 CALM      30.02R FOG
LUDINGTON      MOCLDY    71  69  94 E7        30.02R
MARSHALL       PTCLDY    72  71  98 CALM      30.02R FOG
MOUNT PLEASANT CLEAR     64  62  94 CALM      30.04R
MUSKEGON       PTCLDY    74  69  85 E6        30.02R
SOUTH HAVEN    PTCLDY    74  74 100 CALM      30.01R FOG
$$
MIZ016>042-230500-
NORTHERN LOWER MICHIGAN

CITY           SKY/WX    TMP DP  RH WIND       PRES   REMARKS
ALPENA         FOG       62  62 100 CALM      30.07S VSB 1/4
BEAVER ISLAND  CLOUDY    68  65  90 E6        30.04S
BELLAIRE       CLOUDY    73  65  78 CALM      30.03R
CADILLAC       PTCLDY    68  66  95 SE5       30.06R
CHARLEVOIX     CLOUDY    73  67  83 E3        30.06S
FRANKFORT      MOCLDY    71  67  88 CALM      30.02S
GAYLORD        CLOUDY    69  62  78 VRB3      30.08R
GRAYLING       CLOUDY    70  65  86 E7        30.07S
HARBOR SPRINGS CLOUDY    71  65  81 E8        30.05R
HOUGHTON LAKE  CLOUDY    67  62  84 CALM      30.07R
MANISTEE       MOCLDY    70  66  88 E6        30.03R
OSCODA         FOG       63  63 100 N3        30.05S VSB 1
PELLSTON       CLOUDY    67  64  90 CALM      30.06R
ROGERS CITY    CLEAR     65  64  94 S3        30.07S
TRAVERSE CITY  PTCLDY    69  66  90 CALM      30.02R
$$
MIZ007>008-015-230500-
EASTERN UPPER MICHIGAN

CITY           SKY/WX    TMP DP  RH WIND       PRES   REMARKS
KINROSS        CLEAR     64  64 100 SE3       30.07R
MACKINAC ISLAN CLEAR     64  63  95 SE7       30.06R
NEWBERRY       CLOUDY    65  63  93 E5        30.05R
S. S. MARIE    CLEAR     67  63  87 E3        30.06R
MUNISING         N/A     72  66  81 CALM      30.02S
$$
MIZ004>006-011>014-085-230500-
CENTRAL UPPER MICHIGAN

CITY           SKY/WX    TMP DP  RH WIND       PRES   REMARKS
MANISTIQUE     CLOUDY    68  64  86 E5        30.03S
ESCANABA       CLOUDY    68  63  83 CALM      30.03R
MENOMINEE      PTCLDY    68  64  88 CALM      30.01S
SAWYER-GWINN   CLOUDY    68  65  91 S5        30.05R
$$
MIZ001>003-009>011-084-230500-
WESTERN UPPER MICHIGAN

CITY           SKY/WX    TMP DP  RH WIND       PRES   REMARKS
IRON MOUNTAIN  CLOUDY    69  67  93 S7        30.03R
HOUGHTON       CLOUDY    64  60  87 E3        30.05R
COPPER HARBOR    N/A     53  51  93 CALM      30.05R
$$

ABBREVIATIONS USED IN REMARKS
   TC - TEMPERATURE IN CELSIUS
  WCI - WIND CHILL INDEX
   HX - HEAT INDEX
  VSB - VISIBILITY




USA.gov is the U.S. government's official web portal to all federal, state and local government web resources and services.